Location: Unspecified
(0.0000°N, 0.0000°E)
Time: 03:30:16
(UTC+02:00)

Cosmos 1125 Rocket - Visible Passes

Search period start: 30 September 2016 00:00
Search period end: 10 October 2016 00:00
Orbit: 758 x 780 km, 74.0° (Epoch: 29 September)

Date Brightness Start Highest point End Pass type
(mag) Time Alt. Az. Time Alt. Az. Time Alt. Az.
30 Sep 3.9 05:56:09 10° S 06:01:16 60° ESE 06:06:21 10° NNE visible
01 Oct 5.2 05:24:36 29° ESE 05:24:38 29° ESE 05:29:05 10° NE visible
01 Oct 4.9 07:05:08 14° W 07:06:25 15° WNW 07:09:24 10° NW visible
02 Oct 4.8 06:31:58 23° NW 06:31:58 23° NW 06:34:19 10° NNW visible
03 Oct 5.8 05:58:02 11° N 05:58:02 11° N 05:58:16 10° N visible
